Weather History for KBDH - June, 2013

Change the Weather History Date:

Friday, June 14, 2013

  Actual Average (KLJF) Record (KLJF)
Temperature  
Mean Temperature 73 °F -  
Max Temperature 82 °F 80 °F 99 °F (1979)
Min Temperature 64 °F 57 °F 39 °F (1958)
Cooling Degree Days 8    
Growing Degree Days 23 (Base 50)    
Moisture  
Dew Point 57 °F    
Average Humidity 58    
Maximum Humidity 73    
Minimum Humidity 42    
Precipitation  
Precipitation 0.00 in - - ()
Sea Level Pressure  
Sea Level Pressure 29.96 in    
Wind  
Wind Speed 12 mph (SE)    
Max Wind Speed 29 mph    
Max Gust Speed 36 mph    
Visibility 10 miles    
Events Rain    
Averages and records for this station are not official NWS values.
T = Trace of Precipitation, MM = Missing Value Source: NWS Daily Summary

Daily Weather History Graph

Daily Weather History Graph

Search for Another Location

Airport or City:

Trip Planner

Search our weather history database for the weather conditions in past years. The results will help you decide how hot, cold, wet, or windy it might be!

Date:

Astronomy

Jun. 14, 2013 Rise Set
Actual Time 5:32 AM CDT 9:09 PM CDT
Civil Twilight 4:55 AM CDT 9:46 PM CDT
Nautical Twilight 4:05 AM CDT 10:36 PM CDT
Astronomical Twilight 2:59 AM CDT 11:42 PM CDT
Moon 11:22 AM CDT (6/14) 12:03 AM CDT (6/14)
Length of Visible Light 16h 51m
Length of Day
15h 36m
Waxing Crescent, 30% of the Moon is Illuminated
Jun 14
Waxing Crescent
Jun 16
First Quarter
Jun 23
Full
Jun 29
Last Quarter
Jul 8
New

Hourly Weather History & Observations

Time (CDT) Temp. Heat Index Dew Point Humidity Pressure Visibility Wind Dir Wind Speed Gust Speed Precip Events Conditions
12:15 AM 66.2 °F - 55.4 °F 68% 30.08 in 10.0 mi ESE 6.9 mph - N/A   Clear
12:35 AM 66.2 °F - 55.4 °F 68% 30.08 in 10.0 mi ESE 4.6 mph - N/A   Clear
12:55 AM 66.2 °F - 55.4 °F 68% 30.08 in 10.0 mi ESE 5.8 mph - N/A   Clear
1:15 AM 66.2 °F - 55.4 °F 68% 30.07 in 10.0 mi East 6.9 mph - N/A   Clear
1:35 AM 66.2 °F - 55.4 °F 68% 30.07 in 10.0 mi ESE 5.8 mph - N/A   Clear
1:55 AM 66.2 °F - 55.4 °F 68% 30.08 in 10.0 mi SE 4.6 mph - N/A   Clear
2:15 AM 66.2 °F - 55.4 °F 68% 30.08 in 10.0 mi ESE 4.6 mph - N/A   Clear
2:35 AM 64.4 °F - 55.4 °F 73% 30.07 in 10.0 mi East 5.8 mph - N/A   Clear
2:55 AM 64.4 °F - 55.4 °F 73% 30.07 in 10.0 mi ESE 5.8 mph - N/A   Clear
3:15 AM 64.4 °F - 55.4 °F 73% 30.07 in 10.0 mi SE 8.1 mph - N/A   Clear
3:35 AM 64.4 °F - 55.4 °F 73% 30.05 in 10.0 mi ESE 12.7 mph - N/A   Clear
3:55 AM 66.2 °F - 53.6 °F 64% 30.04 in 10.0 mi ESE 11.5 mph - N/A   Clear
4:15 AM 66.2 °F - 53.6 °F 64% 30.02 in 10.0 mi ESE 11.5 mph - N/A   Clear
4:35 AM 64.4 °F - 53.6 °F 68% 30.02 in 10.0 mi ESE 11.5 mph - N/A   Clear
4:55 AM 64.4 °F - 53.6 °F 68% 30.00 in 10.0 mi ESE 11.5 mph - N/A   Clear
5:15 AM 64.4 °F - 53.6 °F 68% 30.02 in 10.0 mi ESE 8.1 mph - N/A   Clear
5:35 AM 64.4 °F - 53.6 °F 68% 30.01 in 10.0 mi ESE 11.5 mph - N/A   Clear
5:55 AM 64.4 °F - 53.6 °F 68% 29.99 in 10.0 mi ESE 11.5 mph - N/A   Clear
6:15 AM 64.4 °F - 53.6 °F 68% 30.02 in 10.0 mi SSE 8.1 mph - N/A   Clear
6:35 AM 64.4 °F - 53.6 °F 68% 30.02 in 10.0 mi SE 13.8 mph - N/A   Clear
6:55 AM 66.2 °F - 53.6 °F 64% 30.03 in 10.0 mi ESE 11.5 mph - N/A   Clear
7:15 AM 66.2 °F - 53.6 °F 64% 30.03 in 10.0 mi ESE 10.4 mph - N/A   Clear
7:35 AM 66.2 °F - 55.4 °F 68% 30.04 in 10.0 mi SE 9.2 mph - N/A   Clear
7:55 AM 66.2 °F - 55.4 °F 68% 30.03 in 10.0 mi ESE 10.4 mph - N/A   Clear
8:15 AM 66.2 °F - 55.4 °F 68% 30.03 in 10.0 mi SE 11.5 mph - N/A   Clear
8:36 AM 68.0 °F - 55.4 °F 64% 30.03 in 10.0 mi SE 13.8 mph - N/A   Clear
8:55 AM 69.8 °F - 55.4 °F 60% 30.03 in 10.0 mi SE 11.5 mph - N/A   Clear
9:15 AM 69.8 °F - 55.4 °F 60% 30.01 in 10.0 mi ESE 16.1 mph 20.7 mph N/A   Clear
9:35 AM 71.6 °F - 55.4 °F 57% 30.02 in 10.0 mi SE 15.0 mph 19.6 mph N/A   Clear
9:55 AM 73.4 °F - 55.4 °F 53% 30.01 in 10.0 mi SE 17.3 mph - N/A   Clear
10:15 AM 73.4 °F - 55.4 °F 53% 30.00 in 10.0 mi SE 16.1 mph - N/A   Clear
10:35 AM 73.4 °F - 55.4 °F 53% 29.99 in 10.0 mi SE 23.0 mph - N/A   Clear
10:55 AM 75.2 °F - 55.4 °F 50% 29.99 in 10.0 mi SE 16.1 mph 25.3 mph N/A   Clear
11:16 AM 75.2 °F - 57.2 °F 53% 29.98 in 10.0 mi SE 18.4 mph 25.3 mph N/A   Clear
11:35 AM 75.2 °F - 55.4 °F 50% 29.97 in 10.0 mi SE 20.7 mph 26.5 mph N/A   Clear
11:55 AM 78.8 °F - 55.4 °F 44% 29.95 in 10.0 mi SE 25.3 mph 28.8 mph N/A   Clear
12:15 PM 78.8 °F - 55.4 °F 44% 29.96 in 10.0 mi SE 20.7 mph 28.8 mph N/A   Clear
12:35 PM 78.8 °F - 53.6 °F 42% 29.98 in 10.0 mi SE 18.4 mph 26.5 mph N/A   Clear
12:55 PM 78.8 °F - 55.4 °F 44% 29.98 in 10.0 mi SE 15.0 mph - N/A   Clear
1:15 PM 78.8 °F - 55.4 °F 44% 29.97 in 10.0 mi SE 19.6 mph 26.5 mph N/A   Clear
1:35 PM 78.8 °F - 53.6 °F 42% 29.95 in 10.0 mi SE 19.6 mph 26.5 mph N/A   Clear
1:56 PM 80.6 °F 80.5 °F 55.4 °F 42% 29.94 in 10.0 mi SSE 20.7 mph 29.9 mph N/A   Clear
2:15 PM 80.6 °F 80.5 °F 55.4 °F 42% 29.91 in 10.0 mi SE 23.0 mph 28.8 mph N/A   Clear
2:35 PM 80.6 °F 80.8 °F 57.2 °F 45% 29.90 in 10.0 mi SE 28.8 mph 34.5 mph N/A   Clear
2:55 PM 80.6 °F 80.8 °F 57.2 °F 45% 29.90 in 10.0 mi SE 25.3 mph 34.5 mph N/A   Clear
3:15 PM 82.4 °F 82.0 °F 57.2 °F 42% 29.89 in 10.0 mi SE 24.2 mph 29.9 mph N/A   Clear
3:35 PM 82.4 °F 82.0 °F 57.2 °F 42% 29.89 in 10.0 mi SSE 21.9 mph 31.1 mph N/A   Clear
3:56 PM 80.6 °F 80.8 °F 57.2 °F 45% 29.89 in 10.0 mi SSE 23.0 mph 29.9 mph N/A   Clear
4:15 PM 82.4 °F 82.0 °F 57.2 °F 42% 29.88 in 10.0 mi SE 24.2 mph 35.7 mph N/A   Clear
4:35 PM 82.4 °F 82.0 °F 57.2 °F 42% 29.88 in 10.0 mi SSE 19.6 mph 29.9 mph N/A   Clear
4:56 PM 82.4 °F 82.0 °F 57.2 °F 42% 29.87 in 10.0 mi SSE 19.6 mph 29.9 mph N/A   Clear
5:15 PM 82.4 °F 82.5 °F 59.0 °F 45% 29.86 in 10.0 mi SSE 20.7 mph 26.5 mph N/A   Clear
5:35 PM 82.4 °F 82.0 °F 57.2 °F 42% 29.85 in 10.0 mi SE 19.6 mph 28.8 mph N/A   Clear
5:56 PM 82.4 °F 82.5 °F 59.0 °F 45% 29.86 in 10.0 mi SE 20.7 mph 26.5 mph N/A   Scattered Clouds
6:15 PM 80.6 °F 81.1 °F 59.0 °F 48% 29.86 in 10.0 mi SSE 20.7 mph 26.5 mph N/A   Mostly Cloudy
6:35 PM 80.6 °F 81.1 °F 59.0 °F 48% 29.86 in 10.0 mi SSE 15.0 mph 24.2 mph N/A   Mostly Cloudy
6:55 PM 78.8 °F - 59.0 °F 51% 29.87 in 10.0 mi SE 13.8 mph 21.9 mph N/A   Overcast
7:15 PM 78.8 °F - 60.8 °F 54% 29.86 in 10.0 mi SE 13.8 mph 18.4 mph N/A   Overcast
7:36 PM 78.8 °F - 59.0 °F 51% 29.86 in 10.0 mi SSE 17.3 mph 20.7 mph N/A   Mostly Cloudy
7:55 PM 78.8 °F - 59.0 °F 51% 29.85 in 10.0 mi SE 16.1 mph 20.7 mph N/A   Mostly Cloudy
8:15 PM 78.8 °F - 59.0 °F 51% 29.84 in 10.0 mi SE 17.3 mph - N/A   Mostly Cloudy
8:35 PM 78.8 °F - 59.0 °F 51% 29.84 in 10.0 mi SE 11.5 mph 18.4 mph N/A   Overcast
8:55 PM 77.0 °F - 59.0 °F 54% 29.86 in 10.0 mi SSE 12.7 mph 17.3 mph N/A   Overcast
9:15 PM 75.2 °F - 59.0 °F 57% 29.87 in 10.0 mi SSE 10.4 mph 16.1 mph N/A   Overcast
9:35 PM 75.2 °F - 60.8 °F 61% 29.89 in 10.0 mi SSE 12.7 mph 20.7 mph N/A   Overcast
9:55 PM 73.4 °F - 60.8 °F 65% 29.89 in 7.0 mi SSE 12.7 mph 20.7 mph N/A Rain Rain
10:15 PM 73.4 °F - 62.6 °F 69% 29.90 in 10.0 mi SSE 10.4 mph 16.1 mph N/A   Overcast
10:35 PM 71.6 °F - 62.6 °F 73% 29.89 in 10.0 mi SE 8.1 mph - N/A   Overcast
10:55 PM 71.6 °F - 62.6 °F 73% 29.88 in 10.0 mi ESE 6.9 mph - N/A   Light Drizzle
11:15 PM 71.6 °F - 62.6 °F 73% 29.87 in 10.0 mi East 6.9 mph - N/A   Overcast
11:35 PM 71.6 °F - 62.6 °F 73% 29.86 in 10.0 mi ESE 9.2 mph - N/A   Mostly Cloudy
11:55 PM 71.6 °F - 62.6 °F 73% 29.87 in 10.0 mi ESE 9.2 mph - N/A   Mostly Cloudy